Albion, NE

4:59 PM CDT on September 23, 2017 (GMT -0500)
Albion Municipal

Weather History for KBVN - October, 2012

Change the Weather History Date:

Wednesday, October 31, 2012

  Actual Average (KOFK) Record (KOFK)
Temperature  
Mean Temperature 50 °F -  
Max Temperature 71 °F 55 °F 82 °F (1933)
Min Temperature 30 °F 34 °F 10 °F (1923)
Degree Days  
Heating Degree Days 14    
Moisture  
Dew Point 33 °F    
Average Humidity 60    
Maximum Humidity 88    
Minimum Humidity 27    
Precipitation  
Precipitation 0.00 in - - ()
Sea Level Pressure  
Sea Level Pressure 30.01 in    
Wind  
Wind Speed 1 mph (ENE)    
Max Wind Speed 8 mph    
Max Gust Speed -    
Visibility 10 miles    
Events      
Averages and records for this station are not official NWS values.
T = Trace of Precipitation, MM = Missing Value Source: NWS Daily Summary

Daily Weather History Graph

Daily Weather History Graph

Search for Another Location

Airport or City:

Trip Planner

Search our weather history database for the weather conditions in past years. The results will help you decide how hot, cold, wet, or windy it might be!

Date:

Astronomy

Oct. 31, 2012 Rise Set
Actual Time 8:03 AM CDT 6:27 PM CDT
Civil Twilight 7:34 AM CDT 6:56 PM CDT
Nautical Twilight 7:02 AM CDT 7:28 PM CDT
Astronomical Twilight 6:29 AM CDT 8:01 PM CDT
Moon 7:37 PM CDT (10/31) 9:47 AM CDT (10/31)
Length of Visible Light 11h 21m
Length of Day
10h 23m
Full, 97% of the Moon is Illuminated
Oct 31
Full
Nov 6
Last Quarter
Nov 13
New
Nov 20
First Quarter
Nov 28
Full

Hourly Weather History & Observations

Time (CDT) Temp. Windchill Dew Point Humidity Pressure Visibility Wind Dir Wind Speed Gust Speed Precip Events Conditions
12:15 AM 35.6 °F - 28.6 °F 76% 30.03 in 10.0 mi Calm Calm - N/A   Mostly Cloudy
12:35 AM 36.1 °F - 30.2 °F 79% 30.04 in 10.0 mi Calm Calm - N/A   Mostly Cloudy
12:55 AM 37.0 °F - 29.7 °F 75% 30.05 in 10.0 mi Calm Calm - N/A   Scattered Clouds
1:15 AM 36.0 °F - 30.2 °F 80% 30.05 in 10.0 mi Calm Calm - N/A   Scattered Clouds
1:35 AM 36.3 °F - 29.3 °F 76% 30.05 in 10.0 mi Calm Calm - N/A   Scattered Clouds
1:55 AM 36.7 °F - 29.3 °F 75% 30.05 in 10.0 mi Calm Calm - N/A   Mostly Cloudy
2:15 AM 34.2 °F - 29.3 °F 82% 30.04 in 10.0 mi Calm Calm - N/A   Scattered Clouds
2:35 AM 35.6 °F - 28.9 °F 77% 30.03 in 10.0 mi Calm Calm - N/A   Scattered Clouds
2:55 AM 37.8 °F - 29.3 °F 72% 30.04 in 10.0 mi Calm Calm - N/A   Clear
3:15 AM 36.9 °F - 28.9 °F 73% 30.04 in 10.0 mi Calm Calm - N/A   Clear
3:35 AM 34.9 °F - 28.6 °F 78% 30.05 in 10.0 mi Calm Calm - N/A   Scattered Clouds
3:55 AM 33.4 °F - 27.9 °F 80% 30.05 in 10.0 mi Calm Calm - N/A   Mostly Cloudy
4:35 AM 33.1 °F - 28.4 °F 83% 30.03 in 10.0 mi Calm Calm - N/A   Mostly Cloudy
4:55 AM 34.2 °F 31.2 °F 28.9 °F 81% 30.03 in 10.0 mi SE 3.5 mph - N/A   Mostly Cloudy
5:15 AM 34.7 °F 31.8 °F 28.9 °F 79% 30.02 in 10.0 mi SE 3.5 mph - N/A   Mostly Cloudy
5:35 AM 33.4 °F 29.1 °F 27.7 °F 79% 30.01 in 10.0 mi SE 4.6 mph - N/A   Scattered Clouds
5:55 AM 33.4 °F 29.1 °F 28.8 °F 83% 30.01 in 10.0 mi ESE 4.6 mph - N/A   Clear
6:15 AM 34.2 °F 31.2 °F 28.4 °F 79% 30.01 in 10.0 mi SE 3.5 mph - N/A   Clear
6:35 AM 34.2 °F - 28.8 °F 81% 30.01 in 10.0 mi Calm Calm - N/A   Clear
6:55 AM 31.1 °F - 26.8 °F 84% 30.01 in 10.0 mi Calm Calm - N/A   Clear
7:15 AM 32.0 °F - 27.7 °F 84% 30.01 in 10.0 mi Calm Calm - N/A   Clear
7:35 AM 32.0 °F - 27.5 °F 83% 30.01 in 10.0 mi Calm Calm - N/A   Clear
7:55 AM 30.4 °F - 27.1 °F 88% 30.01 in 7.0 mi Calm Calm - N/A   Clear
8:15 AM 31.6 °F - 27.3 °F 84% 30.02 in 10.0 mi Calm Calm - N/A   Clear
8:35 AM 30.0 °F - 26.4 °F 86% 30.02 in 7.0 mi Calm Calm - N/A   Clear
8:55 AM 31.8 °F - 28.2 °F 87% 30.03 in 5.0 mi Calm Calm - N/A   Clear
9:15 AM 33.8 °F - 29.7 °F 85% 30.03 in 7.0 mi Calm Calm - N/A   Clear
9:35 AM 37.2 °F - 30.4 °F 76% 30.03 in 10.0 mi Calm Calm - N/A   Clear
9:55 AM 39.9 °F - 31.3 °F 71% 30.04 in 10.0 mi Calm Calm - N/A   Clear
10:15 AM 42.6 °F - 31.8 °F 66% 30.04 in 10.0 mi Calm Calm - N/A   Clear
10:35 AM 43.9 °F - 32.0 °F 63% 30.04 in 10.0 mi Calm Calm - N/A   Clear
10:55 AM 46.0 °F - 32.4 °F 59% 30.03 in 10.0 mi Calm Calm - N/A   Clear
11:15 AM 48.4 °F - 33.4 °F 56% 30.03 in 10.0 mi Calm Calm - N/A   Clear
11:35 AM 51.4 °F - 34.7 °F 53% 30.03 in 10.0 mi Calm Calm - N/A   Clear
11:55 AM 54.5 °F - 36.0 °F 50% 30.03 in 10.0 mi Calm Calm - N/A   Clear
12:15 PM 58.6 °F - 36.7 °F 44% 30.03 in 10.0 mi Calm Calm - N/A   Clear
12:35 PM 60.3 °F - 37.2 °F 42% 30.02 in 10.0 mi Calm Calm - N/A   Clear
12:55 PM 62.1 °F - 37.8 °F 41% 30.01 in 10.0 mi Calm Calm - N/A   Clear
1:15 PM 64.0 °F - 38.5 °F 39% 30.01 in 10.0 mi South 3.5 mph - N/A   Clear
1:55 PM 66.0 °F - 38.3 °F 36% 29.99 in 10.0 mi Calm Calm - N/A   Clear
2:15 PM 67.1 °F - 38.3 °F 35% 29.99 in 10.0 mi Calm Calm - N/A   Clear
2:35 PM 68.5 °F - 38.7 °F 34% 29.98 in 10.0 mi WNW 5.8 mph - N/A   Clear
2:55 PM 69.8 °F - 38.8 °F 32% 29.97 in 10.0 mi NNW 4.6 mph - N/A   Clear
3:15 PM 70.0 °F - 38.5 °F 32% 29.96 in 10.0 mi Calm Calm - N/A   Clear
3:35 PM 70.7 °F - 37.0 °F 29% 29.95 in 10.0 mi NNW 8.1 mph - N/A   Clear
3:55 PM 71.6 °F - 37.0 °F 28% 29.95 in 10.0 mi West 3.5 mph - N/A   Clear
4:15 PM 71.4 °F - 36.5 °F 28% 29.96 in 10.0 mi Calm Calm - N/A   Clear
4:35 PM 71.1 °F - 35.8 °F 27% 29.96 in 10.0 mi NNW 3.5 mph - N/A   Clear
4:55 PM 71.6 °F - 36.1 °F 27% 29.96 in 10.0 mi NNE 4.6 mph - N/A   Clear
5:15 PM 70.0 °F - 37.0 °F 30% 29.96 in 10.0 mi ENE 6.9 mph - N/A   Clear
5:35 PM 68.9 °F - 36.9 °F 31% 29.96 in 10.0 mi NE 5.8 mph - N/A   Clear
5:55 PM 67.5 °F - 36.9 °F 32% 29.97 in 10.0 mi NE 5.8 mph - N/A   Clear
6:15 PM 63.9 °F - 36.9 °F 37% 29.97 in 10.0 mi NE 6.9 mph - N/A   Clear
6:55 PM 58.1 °F - 37.0 °F 45% 29.98 in 10.0 mi East 5.8 mph - N/A   Clear
7:15 PM 56.5 °F - 36.7 °F 48% 29.98 in 10.0 mi Calm Calm - N/A   Clear
7:35 PM 56.5 °F - 36.7 °F 48% 29.98 in 10.0 mi Calm Calm - N/A   Clear
7:55 PM 57.2 °F - 37.4 °F 48% 29.98 in 10.0 mi Calm Calm - N/A   Clear
8:15 PM 54.0 °F - 36.7 °F 52% 29.99 in 10.0 mi Calm Calm - N/A   Clear
8:35 PM 54.5 °F - 37.2 °F 52% 29.99 in 10.0 mi Calm Calm - N/A   Clear
8:55 PM 54.1 °F - 37.4 °F 53% 29.99 in 10.0 mi Calm Calm - N/A   Mostly Cloudy
9:15 PM 51.6 °F - 37.0 °F 58% 29.99 in 10.0 mi Calm Calm - N/A   Mostly Cloudy
9:35 PM 50.9 °F - 37.0 °F 59% 29.99 in 10.0 mi Calm Calm - N/A   Scattered Clouds
9:55 PM 47.8 °F - 36.3 °F 64% 29.98 in 10.0 mi Calm Calm - N/A   Clear
10:15 PM 46.9 °F - 35.8 °F 65% 29.99 in 10.0 mi Calm Calm - N/A   Clear
10:35 PM 48.2 °F - 36.5 °F 64% 29.98 in 10.0 mi Calm Calm - N/A   Mostly Cloudy
10:55 PM 50.4 °F - 37.4 °F 61% 29.99 in 10.0 mi Calm Calm - N/A   Mostly Cloudy
11:15 PM 50.9 °F - 37.4 °F 60% 29.98 in 10.0 mi Calm Calm - N/A   Overcast
11:35 PM 51.3 °F - 37.9 °F 60% 29.98 in 10.0 mi Calm Calm - N/A   Overcast
11:55 PM 52.3 °F - 38.1 °F 58% 29.98 in 10.0 mi Calm Calm - N/A   Overcast